User: anonymous   Login
Location: Unspecified
(0.0000°N, 0.0000°E)
Time: 18:12:49
(UTC+00:00)
Language:

STARLINK-31283 - Orbit

View from above orbital plane
View from above orbital plane
View from above satellite
View from above satellite

Ground track
Ground track

The orbit is defined by the following mean orbital elements,

1 59174U          26145.50003470 +.00000000 +00000-0 +21669-2 0 00002
2 59174  43.0027 346.3275 0002196 267.2545 146.6678 15.27563143    08
Epoch (UTC): 25 May 2026 12:00:02
Eccentricity: 0.0002196
inclination: 43.0027°
perigee height: 482 km
apogee height: 485 km
right ascension of ascending node: 346.3275°
argument of perigee: 267.2545°
revolutions per day: 15.27563143
mean anomaly at epoch: 146.6678°

The dashed part of the orbit path shows where the satellite is in the earth's shadow,  

DLR